When you browse on this site, cookies collect data to enhance your experience and personalize the content and advertising you see.
Visit our Privacy Policy to learn more. By continuing to use the site, you agree to this use of cookies and data.

Meteo pe oră la Rechane

Astăzi, 9 Iulie, Joi

Timp Temperatura Precipitaţii Vânt Presiune Umiditate
00:00 +12°C° 0 mm 1 m/s 741 mmHg 90%
01:00 +12°C° 0 mm 1 m/s 741 mmHg 90%
02:00 +12°C° 0 mm 1 m/s 741 mmHg 92%
03:00 +12°C° 0 mm 1 m/s 741 mmHg 92%
04:00 +12°C° 0 mm 1 m/s 741 mmHg 93%
05:00 +12°C° 0 mm 2 m/s 741 mmHg 93%
06:00 +12°C° 0.3 mm 2 m/s 741 mmHg 93%
07:00 +13°C° 0.3 mm 2 m/s 741 mmHg 93%
08:00 +13°C° 0 mm 2 m/s 742 mmHg 92%
09:00 +13°C° 0.3 mm 3 m/s 742 mmHg 86%
10:00 +16°C° 0.3 mm 3 m/s 742 mmHg 80%
11:00 +17°C° 0.3 mm 4 m/s 743 mmHg 74%
12:00 +18°C° 0 mm 4 m/s 743 mmHg 64%
13:00 +19°C° 0 mm 4 m/s 743 mmHg 55%
14:00 +20°C° 0 mm 4 m/s 744 mmHg 45%
15:00 +19°C° 0 mm 4 m/s 744 mmHg 46%
16:00 +19°C° 0 mm 3 m/s 744 mmHg 47%
17:00 +19°C° 0 mm 3 m/s 744 mmHg 48%
18:00 +17°C° 0 mm 3 m/s 744 mmHg 57%
19:00 +16°C° 0 mm 2 m/s 744 mmHg 66%
20:00 +14°C° 0 mm 2 m/s 744 mmHg 75%
21:00 +13°C° 0 mm 2 m/s 744 mmHg 80%
22:00 +12°C° 0 mm 1 m/s 745 mmHg 84%
23:00 +11°C° 0 mm 1 m/s 745 mmHg 89%

Mâine, 10 Iulie, Vineri

Timp Temperatura Precipitaţii Vânt Presiune Umiditate
00:00 +9°C° 0 mm 2 m/s 745 mmHg 91%
01:00 +9°C° 0 mm 2 m/s 745 mmHg 93%
02:00 +9°C° 0 mm 2 m/s 746 mmHg 95%
03:00 +9°C° 0 mm 2 m/s 746 mmHg 93%
04:00 +10°C° 0 mm 2 m/s 746 mmHg 91%
05:00 +10°C° 0 mm 2 m/s 746 mmHg 90%
06:00 +13°C° 0 mm 2 m/s 746 mmHg 83%
07:00 +14°C° 0 mm 3 m/s 746 mmHg 76%
08:00 +17°C° 0 mm 3 m/s 746 mmHg 69%
09:00 +17°C° 0 mm 3 m/s 745 mmHg 65%
10:00 +18°C° 0 mm 4 m/s 745 mmHg 62%
11:00 +19°C° 0 mm 4 m/s 745 mmHg 59%
12:00 +17°C° 0.9 mm 4 m/s 745 mmHg 71%
13:00 +15°C° 0.9 mm 4 m/s 744 mmHg 83%
14:00 +13°C° 0.9 mm 4 m/s 744 mmHg 95%
15:00 +14°C° 0.6 mm 4 m/s 744 mmHg 96%
16:00 +14°C° 0.6 mm 4 m/s 743 mmHg 96%
17:00 +14°C° 0.6 mm 4 m/s 743 mmHg 96%
18:00 +15°C° 0.4 mm 4 m/s 743 mmHg 96%
19:00 +17°C° 0.4 mm 4 m/s 743 mmHg 96%
20:00 +17°C° 0.4 mm 4 m/s 742 mmHg 97%
21:00 +17°C° 0 mm 4 m/s 742 mmHg 97%
22:00 +17°C° 0 mm 3 m/s 742 mmHg 98%
23:00 +17°C° 0 mm 3 m/s 743 mmHg 98%

Poimâine, 11 Iulie, Sâmbătă

Timp Temperatura Precipitaţii Vânt Presiune Umiditate
00:00 +17°C° 0 mm 3 m/s 743 mmHg 98%
01:00 +16°C° 0 mm 3 m/s 743 mmHg 98%
02:00 +16°C° 0 mm 3 m/s 743 mmHg 98%
03:00 +17°C° 0 mm 3 m/s 743 mmHg 98%
04:00 +17°C° 0 mm 3 m/s 743 mmHg 98%
05:00 +17°C° 0 mm 3 m/s 743 mmHg 98%
06:00 +18°C° 0 mm 4 m/s 743 mmHg 96%
07:00 +19°C° 0 mm 4 m/s 743 mmHg 94%
08:00 +20°C° 0 mm 5 m/s 742 mmHg 92%
09:00 +21°C° 0.1 mm 5 m/s 742 mmHg 87%
10:00 +22°C° 0.1 mm 5 m/s 743 mmHg 81%
11:00 +24°C° 0.1 mm 6 m/s 743 mmHg 76%
12:00 +24°C° 0.4 mm 6 m/s 743 mmHg 74%
13:00 +25°C° 0.4 mm 5 m/s 743 mmHg 71%
14:00 +25°C° 0.4 mm 5 m/s 744 mmHg 69%
15:00 +25°C° 0 mm 5 m/s 744 mmHg 64%
16:00 +25°C° 0 mm 5 m/s 744 mmHg 60%
17:00 +25°C° 0 mm 4 m/s 745 mmHg 55%
18:00 +22°C° 0 mm 3 m/s 745 mmHg 62%
19:00 +20°C° 0 mm 2 m/s 745 mmHg 70%
20:00 +19°C° 0 mm 1 m/s 746 mmHg 77%
21:00 +18°C° 0 mm 1 m/s 746 mmHg 76%
22:00 +18°C° 0 mm 1 m/s 746 mmHg 75%
23:00 +16°C° 0 mm 1 m/s 746 mmHg 74%

12 Iulie, Duminică

Timp Temperatura Precipitaţii Vânt Presiune Umiditate
00:00 +16°C° 0 mm 1 m/s 746 mmHg 77%
01:00 +15°C° 0 mm 1 m/s 746 mmHg 79%
02:00 +15°C° 0 mm 1 m/s 746 mmHg 82%
03:00 +15°C° 0.1 mm 1 m/s 746 mmHg 82%
04:00 +15°C° 0.1 mm 1 m/s 746 mmHg 81%
05:00 +15°C° 0.1 mm 1 m/s 746 mmHg 81%
06:00 +15°C° 0.4 mm 1 m/s 747 mmHg 83%
07:00 +15°C° 0.4 mm 1 m/s 747 mmHg 86%
08:00 +15°C° 0.4 mm 1 m/s 747 mmHg 88%
09:00 +14°C° 0.6 mm 2 m/s 747 mmHg 90%
10:00 +14°C° 0.6 mm 2 m/s 747 mmHg 93%
11:00 +14°C° 0.6 mm 2 m/s 747 mmHg 96%
12:00 +14°C° 0.1 mm 2 m/s 747 mmHg 94%
13:00 +15°C° 0.1 mm 2 m/s 747 mmHg 92%
14:00 +15°C° 0.1 mm 2 m/s 747 mmHg 91%
15:00 +15°C° 0 mm 2 m/s 747 mmHg 88%
16:00 +16°C° 0 mm 2 m/s 747 mmHg 86%
17:00 +16°C° 0 mm 2 m/s 747 mmHg 83%
18:00 +16°C° 0 mm 2 m/s 747 mmHg 84%
19:00 +15°C° 0 mm 2 m/s 747 mmHg 85%
20:00 +15°C° 0 mm 2 m/s 747 mmHg 86%
21:00 +15°C° 0 mm 2 m/s 747 mmHg 86%
22:00 +14°C° 0 mm 2 m/s 747 mmHg 87%
23:00 +14°C° 0 mm 2 m/s 746 mmHg 87%

13 Iulie, Luni

Timp Temperatura Precipitaţii Vânt Presiune Umiditate
00:00 +14°C° 0 mm 2 m/s 746 mmHg 86%
01:00 +14°C° 0 mm 2 m/s 746 mmHg 85%
02:00 +14°C° 0 mm 2 m/s 746 mmHg 84%
03:00 +13°C° 0 mm 3 m/s 746 mmHg 84%
04:00 +13°C° 0 mm 3 m/s 745 mmHg 84%
05:00 +13°C° 0 mm 3 m/s 745 mmHg 84%
06:00 +13°C° 0 mm 3 m/s 745 mmHg 85%
07:00 +13°C° 0 mm 3 m/s 745 mmHg 85%
08:00 +14°C° 0 mm 3 m/s 744 mmHg 85%
09:00 +14°C° 0 mm 3 m/s 744 mmHg 84%
10:00 +16°C° 0 mm 3 m/s 744 mmHg 83%
11:00 +16°C° 0 mm 3 m/s 744 mmHg 83%
12:00 +17°C° 0 mm 3 m/s 744 mmHg 81%
13:00 +18°C° 0 mm 3 m/s 743 mmHg 79%
14:00 +19°C° 0 mm 3 m/s 743 mmHg 78%
15:00 +19°C° 0 mm 3 m/s 743 mmHg 79%
16:00 +18°C° 0 mm 3 m/s 742 mmHg 80%
17:00 +18°C° 0 mm 3 m/s 742 mmHg 81%
18:00 +18°C° 0 mm 3 m/s 742 mmHg 83%
19:00 +17°C° 0 mm 3 m/s 742 mmHg 86%
20:00 +15°C° 0 mm 4 m/s 742 mmHg 89%
21:00 +16°C° 0.1 mm 3 m/s 741 mmHg 91%
22:00 +14°C° 0.1 mm 3 m/s 741 mmHg 93%
23:00 +14°C° 0.1 mm 3 m/s 741 mmHg 96%

14 Iulie, Marţi

Timp Temperatura Precipitaţii Vânt Presiune Umiditate
00:00 +14°C° 0.3 mm 3 m/s 741 mmHg 97%
01:00 +14°C° 0.3 mm 3 m/s 741 mmHg 97%
02:00 +14°C° 0.3 mm 3 m/s 740 mmHg 98%
03:00 +14°C° 0.9 mm 3 m/s 740 mmHg 98%
04:00 +14°C° 0.9 mm 3 m/s 740 mmHg 98%
05:00 +14°C° 0.9 mm 3 m/s 740 mmHg 98%
06:00 +14°C° 1 mm 3 m/s 740 mmHg 97%
07:00 +14°C° 1 mm 3 m/s 739 mmHg 96%
08:00 +16°C° 1 mm 3 m/s 739 mmHg 96%
09:00 +16°C° 0.2 mm 3 m/s 739 mmHg 96%
10:00 +16°C° 0.2 mm 3 m/s 739 mmHg 96%
11:00 +16°C° 0.2 mm 3 m/s 739 mmHg 95%
12:00 +16°C° 0 mm 3 m/s 738 mmHg 94%
13:00 +17°C° 0 mm 4 m/s 738 mmHg 92%
14:00 +17°C° 0 mm 4 m/s 738 mmHg 91%
15:00 +17°C° 0 mm 4 m/s 738 mmHg 91%
16:00 +17°C° 0 mm 4 m/s 737 mmHg 92%
17:00 +17°C° 0 mm 4 m/s 737 mmHg 92%
18:00 +17°C° 0.1 mm 4 m/s 737 mmHg 92%
19:00 +17°C° 0.1 mm 4 m/s 736 mmHg 93%
20:00 +17°C° 0.1 mm 4 m/s 736 mmHg 93%
21:00 +17°C° 1 mm 4 m/s 736 mmHg 94%
22:00 +16°C° 1 mm 5 m/s 735 mmHg 96%
23:00 +16°C° 1 mm 5 m/s 735 mmHg 97%
Arată mai mult